User: anonymous   Login
Location: Caltech
(34.1382°N, 118.1253°W)
Time: 16:38:39
(UTC-07:00)
Language:

Cosmos 1975 - Orbit

View from above orbital plane
View from above orbital plane
View from above satellite
View from above satellite

Ground track
Ground track

The orbit data is extracted from the following two-line orbital elements,

1 19573U 88093A   17289.47304243  .00000269  00000-0  17269-4 0  9993
2 19573  82.5217 228.1213 0012835 242.7794 117.2125 15.04293604578042
Epoch (UTC): 16 October 2017 11:21:10
Eccentricity: 0.0012835
inclination: 82.5217°
perigee height: 545 km
apogee height: 562 km
right ascension of ascending node: 228.1213°
argument of perigee: 242.7794°
revolutions per day: 15.04293604
mean anomaly at epoch: 117.2125°
orbit number at epoch: 57804

The dashed part of the orbit path shows where the satellite is in the earth's shadow,  

DLR